Location: Arroyo Grande
(40.2671°N, 4.2512°W)
Time: 15:59:50
(UTC+00:00)

SL-16 R/B - Pass Details

Date: 03 February 2023
Orbit: 842 x 846 km, 71.0° (Epoch: 21 March)

Event Time Altitude Azimuth Distance (km) Brightness Sun altitude
Rises 18:27:17 0° 210° (SSW) 3,384 6.0 -9.9°
Reaches altitude 10° 18:29:45 10° 213° (SSW) 2,453 5.3 -10.3°
Maximum altitude 18:35:20 65° 295° (WNW) 924 2.6 -11.4°
Drops below altitude 10° 18:40:58 10° 18° (NNE) 2,471 4.4 -12.4°
Sets 18:43:28 0° 21° (NNE) 3,410 5.0 -12.9°
